Powrót do katalogu

SCOUT A R/B

AktywnyPO
NORAD 2120·ROCKET BODY·🇺🇸 United States

Wystrzelony Mar 26, 1966 z Vandenberg Space Force Base

Loading…

Następne Przeloty (najbliższe 24 godziny)

TLE

ŚwieżeSource: Space-Track

Epoka: Sep 14, 2026, 04:10 UTC

1 02120U 66024B   26257.17390464  .00000072  00000-0  62934-4 0  9996
2 02120  89.8198 170.1973 0150508 308.8973  49.8846 13.72659902 24116

Śledź SCOUT A R/B w czasie rzeczywistym z AllMySat

Download on the App Store